Location: Unspecified
(0.0000°N, 0.0000°E)
Time: 14:24:14
(UTC+00:00)

Tiangong - Visible Passes

Search period start: 30 November 2021 00:00
Search period end: 10 December 2021 00:00
Orbit: 381 x 384 km, 41.5° (Epoch: 30 November)

Date Brightness Start Highest point End Pass type
(mag) Time Alt. Az. Time Alt. Az. Time Alt. Az.
30 Nov 2.4 18:55:05 10° WSW 18:57:59 34° NW 18:59:21 22° N visible
02 Dec 3.8 18:32:22 10° WNW 18:34:04 14° NW 18:35:45 10° N visible
03 Dec 3.5 04:26:14 14° NNE 04:27:11 15° NE 04:29:10 10° E visible
04 Dec 1.1 05:01:22 18° WNW 05:03:30 62° SW 05:06:37 10° SE visible
05 Dec 3.0 04:04:16 28° E 04:04:16 28° E 04:06:09 10° ESE visible
06 Dec 2.6 04:39:17 22° SW 04:39:26 22° SW 04:41:58 10° S visible
07 Dec 4.5 03:42:02 11° SE 03:42:02 11° SE 03:42:10 10° SE visible
